Regional Weather Roundup
Issued by NWS Sterling, VA

Home | Current Version | Previous Version | Graphics & Text | Print | Product List | Glossary On
Versions: 1 2 3 4 5 6 7 8 9 10 11 12 13 14 15 16 17 18 19 20 21 22 23 24 25 26 27 28 29 30 31 32 33 34 35 36 37 38 39 40 41 42 43 44 45 46 47 48 49 50
000
ASUS41 KLWX 182211
RWRLWX

REGIONAL WEATHER ROUNDUP
NATIONAL WEATHER SERVICE BALTIMORE MD/WASHINGTON DC
600 PM EDT WED OCT 18 2017

Note: "FAIR" indicates few or no clouds below 12,000 feet
with no significant weather and/or obstructions to visibility.
 TC=TEMPERATURE CELSIUS

 * =Non NWS site. Station does not report precipitation (e.g. rain,
    snow, etc.), thunder, or fog.

DCZ001-MDZ009-015-VAZ040>042-051-053>054-182300-
WASHINGTON METRO

CITY           SKY/WX    TMP DP  RH WIND       PRES   REMARKS
WASHINGTON NAT PTCLDY    67  42  40 S10       30.31S
DULLES         PTCLDY    66  42  41 S6        30.29F
ANDREWS AFB    CLEAR     64  41  43 S8        30.29F
FT BELVOIR     CLEAR     64  47  55 S3        30.30F
QUANTICO       PTCLDY    68  48  48 S9        30.31F
COLLEGE PARK*  CLEAR     67  41  39 CALM      30.30S
LEESBURG*      CLEAR     68  45  42 S5        30.30S
MANASSAS*      CLEAR     66  44  45 S5        30.30S
GAITHERSBURG*  CLEAR     66  43  43 S5        30.30F

$$

MDZ006>007-011-014-182300-
BALTIMORE METRO

CITY           SKY/WX    TMP DP  RH WIND       PRES   REMARKS
BWI AIRPORT    PTCLDY    67  44  43 S3        30.29S
MD SCIENCE CTR   N/A     70  43  37 MISG      30.29S
MARTIN STATE   CLEAR     66  54  63 SE10      30.30F
ANNAPOLIS      CLEAR     66  51  58 S9        30.29F
FORT MEADE*    CLEAR     61  48  63 CALM      30.31F

$$

MDZ012-015-019>023-182300-
MARYLAND EASTERN SHORE

CITY           SKY/WX    TMP DP  RH WIND       PRES   REMARKS
OCEAN CITY     CLEAR     61  46  57 SW6       30.32S
SALISBURY      CLEAR     62  48  60 W7        30.31S
CAMBRIDGE*     CLEAR     64  43  45 S3        30.31F
EASTON*        CLEAR     64  41  42 SW7       30.34F

$$

MDZ017>025-182300-
SOUTHERN MARYLAND

CITY           SKY/WX    TMP DP  RH WIND       PRES   REMARKS
PATUXENT RIVER PTCLDY    63  50  62 SE6       30.31F
ST INIGOES     CLEAR     63  46  54 SE3       30.31F
LEONARDTOWN*   NOT AVBL

$$

MDZ003>005-182300-
NORTH CENTRAL MARYLAND

CITY           SKY/WX    TMP DP  RH WIND       PRES   REMARKS
FREDERICK*     CLEAR     72  36  26 SW6       30.31F
HAGERSTOWN APT CLEAR     68  42  38 S8        30.28S
WESTMINSTER*   CLEAR     70  46  43 S6        30.29S

$$

MDZ501>502-182300-
WESTERN MARYLAND

CITY           SKY/WX    TMP DP  RH WIND       PRES   REMARKS
OAKLAND*       CLEAR     59  36  41 SE6       30.26F
CUMBERLAND*    CLOUDY    70  41  35 CALM      30.29F

$$

VAZ025>031-182300-
SHENANDOAH VALLEY

CITY           SKY/WX    TMP DP  RH WIND       PRES   REMARKS
WINCHESTER*    CLEAR     64  39  39 S5        30.28S
FRONT ROYAL*   CLEAR     64  41  42 S3        30.27F
LURAY*         CLEAR     68  37  32 SW6       30.28F
NEW MARKET*    CLEAR     66  37  33 S5        30.28S
STAUNTON*      CLEAR     65  40  39 S6        30.31F
WAYNESBORO*    CLEAR     62  41  46 SE9       30.31S

$$

WVZ021-048>050-054>055-182300-
EASTERN WEST VIRGINIA PANHANDLE

CITY           SKY/WX    TMP DP  RH WIND       PRES   REMARKS
MARTINSBURG    CLEAR     65  41  41 S6        30.27F
PETERSBURG*    CLEAR     67  40  37 SE6       30.25F

$$

VAZ036>039-050-182300-
CENTRAL FOOTHILLS

CITY           SKY/WX    TMP DP  RH WIND       PRES   REMARKS
CHARLOTTESVILL CLEAR     66  40  38 S6        30.30F
CULPEPER*      CLEAR     69  37  30 S3        30.31S
ORANGE*        CLEAR     64  41  42 S3        30.31S
GORDONSVILLE*  CLEAR     65  42  43 CALM      30.30F
WARRENTON*     CLEAR     68  37  32 S5        30.30S

$$

VAZ055>057-182300-
NORTH AND CENTRAL PIEDMONT

CITY           SKY/WX    TMP DP  RH WIND       PRES   REMARKS
FREDERICKSBRG* CLEAR     66  46  49 S6        30.30S
STAFFORD*      CLEAR     65  41  41 CALM      30.34F

$$

NCZ024-NYZ072-PAZ021-071-VAZ022-071-182300-
OTHER REGIONAL OBSERVATIONS

CITY           SKY/WX    TMP DP  RH WIND       PRES   REMARKS
NEW YORK CITY  CLEAR     66  49  54 MISG      30.28R
PHILADELPHIA   CLEAR     69  46  43 SW7       30.28S
PITTSBURGH     MOCLDY    69  38  32 SW6       30.23S
ROANOKE        CLEAR     64  39  39 SE8       30.33S
RICHMOND       PTCLDY    64  37  36 S5        30.31F
RALEIGH        PTCLDY    65  39  38 E6        30.32S

$$

ANZ530>537-182300-
MARINE OBSERVATIONS

STATION/POSITION TIME  TEMP    WIND        PRES
                       AIR SEA DIR/SP/G
                 (UTC) (F)     (DEG/KT/KT) (MB)
THOMAS PT LIGHT  2200   66 68  180/ 14/ 15   N/A
BALT KEY BRIDGE  2136   67     160/ 10/ 11 1025.4F
COVE POINT       2136   64     190/ 10/ 12 1027.1F
LEWISETTA        2136   65 66  140/  7/  8 1026.3F
SOLOMONS ISLAND  2136   65 70  130/  6/  8 1026.0F
PINEY POINT      2136          160/  8/  9   N/A

$$




USA.gov is the U.S. government's official web portal to all federal, state and local government web resources and services.